Location: Kimberly
(42.5380°N, 114.3640°W)
Time: 10:50:17
(UTC-06:00)

X-37B - Pass Details

Date: 02 August 2021
Orbit: 381 x 393 km, 45.0° (Epoch: 29 August)

Event Time Altitude Azimuth Distance (km) Brightness Sun altitude
Exits shadow 04:17:15 18° 123° (ESE) 1,031 2.8 -20.2°
Drops below altitude 10° 04:18:43 10° 97° (E) 1,392 3.8 -20.0°
Sets 04:21:08 0° 79° (E) 2,248 5.3 -19.8°
